{"data":{"norad_id":53165,"epoch":"2026-09-19T22:41:42.068256Z","epoch_age_seconds":120145,"freshness":"FRESH","line1":"1 53165U 22083AK  26262.94562579  .00002326  00000+0  77558-4 0  9998","line2":"2 53165  53.1614   6.2648 0001054  87.7374 272.3750 15.35399459230761","mean_motion":15.35399459,"eccentricity":0.0001054,"inclination_deg":53.1614,"raan_deg":6.2648,"arg_perigee_deg":87.7374,"mean_anomaly_deg":272.375,"bstar":7.7558e-5,"rev_number":23076,"period_min":93.786668450298,"perigee_km":459.01353733288,"apogee_km":460.45496059216,"semimajor_km":6837.8712489625,"source":"CELESTRAK","updated_at":"2026-09-20T09:00:40.184480Z"}}